Location: Eurasberg
(48.3353°N, 11.0839°E)
Time: 08:25:10
(UTC+00:00)

SJ-12 - Pass Details

Date: 18 January 2026
Orbit: 514 x 525 km, 97.8° (Epoch: 17 February)

Event Time Altitude Azimuth Distance (km) Brightness Sun altitude
Rises 05:52:58 0° 15° (NNE) 2,672 7.3 -10.9°
Reaches altitude 10° 05:55:06 10° 18° (NNE) 1,776 6.4 -10.6°
Maximum altitude 05:58:54 67° 102° (ESE) 571 4.1 -10.0°
Drops below altitude 10° 06:02:41 10° 186° (S) 1,754 6.6 -9.4°
Sets 06:04:46 0° 189° (S) 2,634 7.5 -9.0°
